#timestamp,LO_Frequency,Hit,StdDev 
1676430015.5,286046999.5,N
1676430035.4,286046996.5,N
1676430055.2,286046998.9,N
1676430075.0,286046999.4,N
1676430075.9,286046999.4,N
1676430095.8,286046999.6,N
1676430115.6,286046998.3,N
1676430135.5,286046998.6,N
1676430155.3,286046999.5,N
1676430175.1,286046996.8,N
1676430195.9,286046999.6,N
1676430215.7,286046997.0,N
1676430235.5,286046999.3,N
1676430255.4,286046998.8,N
1676430275.2,286047001.0,N
1676430295.1,286046996.6,N
1676430296.0,286046996.6,N
1676430345.8,286046996.6,E
1676430355.7,286047001.1,N
1676430375.6,286047002.2,P
1676430395.4,286047004.1,P
1676430415.3,286047002.0,N
1676430435.1,286047004.0,Y
1676430455.8,286047002.8,P
1676430475.7,286046999.9,N
1676430495.5,286046998.3,N
1676430515.4,286047000.7,N
1676430535.2,286047001.2,N
1676430555.0,286047000.7,N
1676430555.9,286047000.7,N
1676430575.8,286047002.3,N
1676430595.6,286047001.9,N
1676430615.4,286046999.8,N
1676430635.3,286046999.4,N
1676430655.1,286046997.5,N
1676430675.9,286046993.7,Y
1676430695.7,286046992.5,P
1676430715.5,286046992.6,N
1676430735.4,286046992.5,N
1676430755.2,286046992.1,N
1676430775.0,286046995.5,N
1676430775.9,286046995.5,N
1676430795.8,286046996.9,N
1676430815.6,286047000.7,N
1676430835.5,286046999.0,N
1676430855.3,286046998.8,N
1676430875.1,286046999.9,N
1676430895.9,286047000.6,N
1676430915.7,286046995.5,N
1676430935.6,286046995.6,N
1676430955.4,286046995.5,N
1676430975.2,286046996.7,N
1676430995.1,286047001.1,N
1676430996.0,286047001.1,N
1676431015.8,286046998.3,N
1676431035.6,286047000.3,N
1676431055.5,286046998.5,N
1676431075.3,286046999.4,N
1676431095.2,286046999.0,N
1676431115.9,286047000.5,N
1676431135.7,286047000.8,N
1676431155.6,286046998.2,N
1676431175.4,286046998.4,N
1676431195.2,286047001.0,N
1676431215.1,286047002.4,N
1676431216.0,286047002.4,N
1676431235.8,286047001.0,N
1676431255.7,286047001.2,N
1676431275.5,286046999.2,N
1676431295.3,286046999.4,N
1676431315.2,286046996.5,N
1676431335.0,286046997.2,N
1676431335.9,286046997.2,N
1676431355.8,286046998.7,N
1676431405.6,286046998.5,E
1676431415.5,286047000.7,N
1676431435.3,286047000.1,P
1676431455.2,286047000.1,N
1676431475.0,286046998.5,Y
1676431475.9,286046998.5,P
1676431495.8,286046998.8,N
1676431515.6,286046996.6,P
1676431535.4,286046999.6,N
1676431555.3,286046999.0,N
1676431575.1,286047000.8,N
1676431595.9,286046998.4,N
1676431615.7,286046999.0,N
1676431635.5,286046997.0,N
1676431655.4,286047000.5,N
1676431675.2,286046999.9,N
1676431695.0,286047000.4,N
1676431695.9,286047000.4,N
1676431715.8,286047000.1,N
1676431735.6,286047000.9,N
1676431755.5,286047001.1,N
1676431775.3,286047000.9,N
1676431795.1,286047000.5,N
1676431815.9,286047000.0,N
1676431835.7,286047001.2,N
1676431855.5,286046996.5,N
1676431875.4,286046994.9,Y
1676431895.2,286046994.9,P
1676431915.1,286046994.9,N
1676431916.0,286046994.9,N
1676431935.8,286046999.4,N
1676431955.6,286047000.5,N
1676431975.5,286047000.9,N
1676431995.3,286046999.1,N
1676432015.1,286046998.6,N
1676432035.9,286047000.3,N
1676432055.7,286047000.4,N
1676432075.6,286047000.4,N
1676432095.4,286047001.9,N
1676432115.2,286046999.8,N
1676432135.1,286047004.1,N
1676432136.0,286047004.1,N
1676432155.8,286047005.8,N
1676432175.7,286047001.4,N
1676432195.5,286047003.7,N
1676432215.3,286047005.4,N
1676432235.2,286047003.4,N
1676432255.0,286047004.3,N
1676432255.9,286047004.3,N
1676432275.8,286047002.2,N
1676432295.6,286047002.3,N
1676432315.4,286047000.2,N
1676432335.3,286047000.2,N
1676432355.1,286047004.2,N
1676432375.8,286047000.2,N
1676432395.7,286047001.9,N
1676432415.5,286047002.6,N
1676432435.4,286047001.5,N
1676432455.2,286046999.9,N
1676432475.0,286047000.0,N
1676432475.9,286047000.0,N
1676432495.8,286047002.0,N
1676432515.6,286047004.4,N
1676432535.5,286047000.5,N
1676432555.3,286047000.5,N
1676432575.1,286046999.9,N
1676432595.9,286046998.7,N
1676432615.7,286046999.2,N
1676432635.6,286046996.9,N
1676432655.4,286046998.3,N
1676432675.2,286046998.4,N
1676432695.1,286046999.5,N
1676432696.0,286046999.5,N
1676432715.8,286046998.2,N
1676432735.7,286047001.0,N
1676432755.5,286047001.2,N
1676432775.3,286047000.7,N
1676432795.2,286047001.0,N
1676432815.0,286047001.2,N
1676432815.9,286047001.2,N
1676432835.8,286047000.4,N
1676432855.6,286047000.9,N
1676432875.4,286047002.8,N
1676432895.3,286047002.8,N
1676432915.1,286046999.3,N
1676432935.9,286046998.5,N
1676432955.7,286046998.6,N
1676432975.5,286046998.5,N
1676432995.4,286046999.0,N
1676433015.2,286046997.0,N
1676433035.0,286046994.9,Y
1676433036.0,286046994.9,P
1676433055.8,286046999.6,N
1676433075.6,286046996.9,N
1676433095.5,286047000.4,N
1676433115.3,286046998.2,N
1676433135.1,286046999.4,N
1676433155.9,286046995.2,N
1676433175.7,286046996.3,N
1676433195.6,286046995.8,N
1676433215.4,286046995.1,N
1676433235.2,286046997.8,N
1676433255.1,286046995.5,N
1676433256.0,286046995.5,N
1676433275.8,286046999.5,N
1676433295.6,286046998.8,N
1676433315.5,286046998.9,N
1676433335.3,286046998.8,N
1676433355.2,286046998.7,N
1676433375.9,286046998.3,N
1676433395.7,286046999.0,N
1676433415.6,286046999.0,N
1676433435.4,286046999.5,N
1676433455.2,286046998.5,N
1676433475.1,286046999.7,N
1676433476.0,286046999.7,N
1676433495.8,286047000.8,N
1676433515.7,286046999.6,N
1676433535.5,286046997.3,N
1676433555.3,286046997.0,N
1676433575.2,286046993.8,Y
1676433595.0,286046998.0,P
1676433595.9,286046998.0,P
